Lid_Strength_Index
6 8 9 7 7 7 7 8 8 7 6 7 7 7 6 5 4 5 4 4 4 3 2 2 2 2 2 1 1 1 1 1 1 1 1 1 2 1 0 -0 -1 -1 -1 -1
6 8 6 5 6 7 7 8 8 7 6 7 7 7 6 5 5 4 4 4 4 3 3 2 2 2 2 2 2 1 1 1 1 1 1 1 1 0 0 -0 -0 -1 -1 -1
8 7 5 6 7 8 8 8 8 8 7 6 7 8 7 5 4 4 4 4 3 3 3 3 3 3 3 3 2 2 1 1 1 0 0 1 0 1 1 1 0 -0 -1 -1
7 5 6 7 7 7 9 6 7 8 8 11 7 12 8 6 6 5 4 4 4 3 3 2 3 3 3 2 2 1 1 1 1 0 1 1 2 3 1 1 0 0 -1 -0
8 7 7 8 7 6 8 6 7 7 9 9 9 11 9 7 7 6 5 4 4 3 3 3 3 3 2 2 2 2 1 1 1 1 1 1 2 1 1 1 1 0 0 -0
6 5 6 6 6 6 6 7 7 8 9 12 10 10 10 9 7 6 5 4 4 3 3 3 2 3 3 2 2 2 2 2 1 1 1 2 2 2 2 2 2 1 1 0
7 7 6 5 7 6 7 8 12 13 13 13 9 10 9 7 6 5 5 5 4 3 3 3 2 3 3 3 2 2 2 2 2 1 1 1 2 2 2 2 2 2 1 1
11 11 7 6 7 8 8 9 12 16 15 13 9 12 9 6 5 4 4 4 4 4 3 3 3 2 5 3 2 2 2 2 2 2 2 1 1 1 1 1 2 2 2 1
11 10 6 7 6 6 8 10 7 11 10 13 11 9 7 6 6 5 5 4 5 4 3 3 3 2 2 2 3 6 2 2 2 2 2 1 1 1 1 1 1 2 2 1
9 12 8 8 7 6 8 7 12 11 16 17 14 12 12 10 9 6 5 5 5 4 3 3 3 2 2 2 1 2 2 2 2 2 2 1 1 1 1 1 2 1 1 1
9 10 11 8 10 11 9 10 9 9 11 16 18 14 10 10 8 8 9 6 5 4 4 3 3 2 2 2 2 2 2 2 2 2 2 2 1 1 1 1 1 2 1 0
8 10 13 12 8 7 9 9 9 13 16 13 14 14 9 8 7 7 7 7 5 4 4 3 3 3 2 2 2 2 2 1 2 2 2 2 1 1 1 1 1 2 1 0
9 11 14 14 10 8 9 8 8 8 10 13 17 14 7 8 8 7 7 7 7 5 4 3 3 3 3 2 2 2 2 2 1 2 2 2 2 2 2 1 1 1 1 1
8 10 12 15 12 9 11 10 9 9 13 12 11 11 9 8 9 8 8 8 7 7 4 3 4 3 3 2 2 2 2 2 2 2 2 2 2 2 2 2 2 1 2 1
7 10 9 9 9 9 10 10 10 11 10 12 10 10 8 7 8 7 6 7 8 8 6 4 4 3 3 3 2 2 2 2 2 2 2 2 2 2 3 3 3 3 2 2
7 12 9 10 9 9 10 9 9 9 10 10 10 10 7 6 5 6 5 6 8 8 7 6 5 4 3 3 3 2 2 2 2 2 2 2 2 2 3 3 3 3 2 2
9 10 11 13 9 10 13 10 9 9 8 8 11 9 6 6 6 5 6 6 6 7 7 6 6 4 3 3 2 3 2 2 2 2 2 2 2 2 2 3 3 3 3 3
8 9 9 13 10 17 9 7 7 8 7 7 7 6 6 5 5 5 4 4 5 5 5 6 5 4 3 2 2 2 1 2 2 2 2 2 2 2 2 2 2 3 3 2
6 8 11 14 13 11 9 8 8 9 9 6 7 6 5 5 5 5 3 3 3 3 3 3 3 3 2 2 1 2 2 2 2 2 2 2 2 2 2 2 2 2 2 2
6 6 10 11 15 17 10 7 5 6 12 7 6 7 7 6 8 6 4 3 3 2 2 2 2 2 2 1 1 2 2 2 2 2 2 2 2 2 2 2 2 2 2 2
10 11 14 14 15 12 8 7 6 13 12 6 6 6 6 8 6 5 3 3 2 2 2 1 1 2 2 1 1 2 2 2 2 1 1 1 2 2 2 2 2 2 2 2
11 13 14 13 16 17 7 7 11 8 6 6 5 5 6 5 4 4 4 3 3 2 2 2 2 2 1 1 1 2 2 1 1 1 1 2 3 3 3 3 2 2 2 2
12 11 13 11 12 7 6 6 5 5 6 6 6 5 5 5 5 4 4 3 3 3 2 2 2 2 1 1 1 2 2 1 1 1 2 2 4 4 5 6 7 7 7 5
8 6 10 10 8 7 7 6 6 6 6 6 6 6 5 5 5 4 4 4 3 3 2 2 2 2 2 1 1 1 1 1 1 2 2 2 2 4 5 6 8 9 9 9
8 7 9 9 8 8 7 7 7 7 7 7 6 6 5 5 5 4 4 4 3 3 2 2 2 2 2 1 1 1 1 1 2 2 2 2 2 2 6 8 9 10 10 8
7 10 11 12 8 9 9 7 7 7 7 7 7 6 5 4 5 4 4 3 3 3 2 2 2 2 2 1 1 1 1 1 2 2 2 2 2 2 4 6 7 11 11 11